Location: ????????
(54.6123°N, 39.2099°E)
Time: 12:00:23
(UTC+00:00)

SPOT 3 Rocket - Pass Details

Date: 19 May 2025
Orbit: 775 x 790 km, 98.5° (Epoch: 13 June)

Event Time Altitude Azimuth Distance (km) Brightness Sun altitude
Exits shadow 18:22:24 - 156° (SSE) 2,632 5.7 -6.4°
Reaches altitude 10° 18:23:10 10° 155° (SSE) 2,326 5.4 -6.5°
Maximum altitude 18:28:17 76° 71° (ENE) 805 3.6 -7.0°
Drops below altitude 10° 18:33:26 10° 346° (NNW) 2,338 7.2 -7.4°
Sets 18:35:46 0° 345° (NNW) 3,270 8.2 -7.6°
